Weather History for KMIW - September, 2013

Change the Weather History Date:

Wednesday, September 25, 2013

  Actual Average Record
Temperature  
Mean Temperature 64 °F 59 °F  
Max Temperature 77 °F 71 °F 85 °F (2012)
Min Temperature 50 °F 46 °F 32 °F (2001)
Degree Days  
Heating Degree Days 1 7  
Month to date heating degree days 63 94  
Since 1 July heating degree days 84 115  
Cooling Degree Days 0 1  
Month to date cooling degree days 131 57  
Year to date cooling degree days 843 713  
Growing Degree Days 12 (Base 50)    
Moisture  
Dew Point 52 °F    
Average Humidity 68    
Maximum Humidity 93    
Minimum Humidity 43    
Precipitation  
Precipitation 0.00 in 0.10 in 0.48 in (2010)
Month to date precipitation 1.54 2.90  
Sea Level Pressure  
Sea Level Pressure 29.90 in    
Wind  
Wind Speed 8 mph (East)    
Max Wind Speed 16 mph    
Max Gust Speed 20 mph    
Visibility 10 miles    
Events      
T = Trace of Precipitation, MM = Missing Value Source: NWS Daily Summary

Daily Weather History Graph

Daily Weather History Graph

Search for Another Location

Airport or City:

Trip Planner

Search our weather history database for the weather conditions in past years. The results will help you decide how hot, cold, wet, or windy it might be!

Date:

Astronomy

Sep. 25, 2013 Rise Set
Actual Time 7:02 AM CDT 7:03 PM CDT
Civil Twilight 6:34 AM CDT 7:31 PM CDT
Nautical Twilight 6:01 AM CDT 8:03 PM CDT
Astronomical Twilight 5:28 AM CDT 8:36 PM CDT
Moon 11:04 PM CDT (9/25) 1:14 PM CDT (9/25)
Length of Visible Light 12h 56m
Length of Day
12h 00m
Waning Gibbous, 64% of the Moon is Illuminated
Sep 25
Waning Gibbous
Sep 26
Last Quarter
Oct 4
New
Oct 11
First Quarter
Oct 18
Full

Hourly Weather History & Observations

Time (CDT) Temp. Dew Point Humidity Pressure Visibility Wind Dir Wind Speed Gust Speed Precip Events Conditions
12:53 AM 55.0 °F 50.0 °F 83% 29.91 in 10.0 mi ENE 3.5 mph - N/A   Clear
1:53 AM 55.0 °F 51.1 °F 86% 29.91 in 10.0 mi East 5.8 mph - N/A   Scattered Clouds
2:53 AM 55.9 °F 51.1 °F 84% 29.91 in 10.0 mi East 8.1 mph - N/A   Mostly Cloudy
3:53 AM 53.1 °F 50.0 °F 89% 29.91 in 10.0 mi ENE 8.1 mph - N/A   Clear
4:53 AM 53.1 °F 50.0 °F 89% 29.92 in 9.0 mi East 6.9 mph - N/A   Clear
5:53 AM 52.0 °F 48.9 °F 89% 29.92 in 9.0 mi ENE 6.9 mph - N/A   Clear
6:53 AM 50.0 °F 48.0 °F 93% 29.94 in 7.0 mi East 6.9 mph - N/A   Clear
7:53 AM 51.1 °F 48.9 °F 92% 29.95 in 6.0 mi Calm Calm - N/A   Clear
8:53 AM 55.0 °F 51.1 °F 86% 29.96 in 9.0 mi ENE 5.8 mph - N/A   Partly Cloudy
9:53 AM 61.0 °F 52.0 °F 72% 29.96 in 10.0 mi East 8.1 mph - N/A   Partly Cloudy
10:53 AM 68.0 °F 52.0 °F 56% 29.95 in 10.0 mi East 10.4 mph - N/A   Clear
11:53 AM 71.1 °F 51.1 °F 49% 29.94 in 10.0 mi ESE 10.4 mph - N/A   Clear
12:53 PM 73.0 °F 51.1 °F 46% 29.93 in 10.0 mi ESE 12.7 mph - N/A   Clear
1:53 PM 75.0 °F 52.0 °F 44% 29.90 in 10.0 mi ESE 12.7 mph - N/A   Clear
2:53 PM 75.0 °F 52.0 °F 44% 29.88 in 10.0 mi SE 4.6 mph 17.3 mph N/A   Clear
3:53 PM 75.9 °F 52.0 °F 43% 29.87 in 10.0 mi SE 5.8 mph - N/A   Clear
4:53 PM 75.9 °F 53.1 °F 45% 29.86 in 10.0 mi ESE 11.5 mph - N/A   Clear
5:53 PM 73.9 °F 53.1 °F 48% 29.86 in 10.0 mi ESE 11.5 mph - N/A   Clear
6:53 PM 66.9 °F 54.0 °F 63% 29.86 in 10.0 mi East 6.9 mph - N/A   Clear
7:53 PM 63.0 °F 54.0 °F 72% 29.86 in 10.0 mi ESE 8.1 mph - N/A   Clear
8:53 PM 60.1 °F 53.1 °F 78% 29.86 in 10.0 mi East 6.9 mph - N/A   Clear
9:53 PM 60.1 °F 53.1 °F 78% 29.87 in 10.0 mi ESE 4.6 mph - N/A   Clear
10:53 PM 59.0 °F 53.1 °F 81% 29.87 in 10.0 mi East 8.1 mph - N/A   Clear
11:53 PM 57.9 °F 52.0 °F 81% 29.89 in 10.0 mi East 4.6 mph - N/A   Clear